Location: Milton
(43.5183°N, 79.8775°W)
Time: 22:18:46
(UTC+00:00)

Envisat - Visible Passes

Search period start: 04 December 2022 00:00
Search period end: 14 December 2022 00:00
Orbit: 763 x 765 km, 98.2° (Epoch: 04 December)

Date Brightness Start Highest point End Pass type
(mag) Time Alt. Az. Time Alt. Az. Time Alt. Az.
04 Dec 5.0 10:25:40 10° N 10:26:29 14° N 10:26:29 14° N visible
05 Dec 5.3 09:48:21 10° N 09:48:54 13° N 09:48:54 13° N visible
06 Dec 5.1 10:51:14 10° NNW 10:51:29 11° NNW 10:51:29 11° NNW visible
07 Dec 5.3 10:13:34 10° N 10:13:55 12° N 10:13:55 12° N visible
